Jefferson, AL

1:35 AM CST on February 08, 2016 (GMT -0600)
Demopolis Municipal Airport

Weather History for KDYA - February, 2014

Change the Weather History Date:

Friday, February 21, 2014

  Actual Average (KMEI) Record (KMEI)
Temperature  
Mean Temperature 52 °F 50 °F  
Max Temperature 66 °F 63 °F 81 °F (1981)
Min Temperature 36 °F 38 °F 21 °F (1958)
Degree Days  
Heating Degree Days 14 15  
Month to date heating degree days 362  
Since 1 July heating degree days 1999  
Cooling Degree Days 0 0  
Month to date cooling degree days 0  
Year to date cooling degree days 3  
Growing Degree Days 2 (Base 50)    
Moisture  
Dew Point 36 °F    
Average Humidity 65    
Maximum Humidity 100    
Minimum Humidity 21    
Precipitation  
Precipitation 0.00 in 0.19 in 4.96 in (1961)
Month to date precipitation 4.24  
Year to date precipitation 9.37  
Sea Level Pressure  
Sea Level Pressure 30.09 in    
Wind  
Wind Speed 6 mph (NW)    
Max Wind Speed 20 mph    
Max Gust Speed 32 mph    
Visibility 10 miles    
Events Rain    
T = Trace of Precipitation, MM = Missing Value Source: NWS Daily Summary

Daily Weather History Graph

Daily Weather History Graph

Search for Another Location

Airport or City:

Trip Planner

Search our weather history database for the weather conditions in past years. The results will help you decide how hot, cold, wet, or windy it might be!

Date:

Astronomy

Feb. 21, 2014 Rise Set
Actual Time 6:28 AM CST 5:42 PM CST
Civil Twilight 6:03 AM CST 6:07 PM CST
Nautical Twilight 5:34 AM CST 6:36 PM CST
Astronomical Twilight 5:06 AM CST 7:04 PM CST
Moon No Moon Rise 10:14 AM CST (2/21)
Length of Visible Light 12h 04m
Length of Day
11h 14m
Waning Gibbous, 60% of the Moon is Illuminated
Feb 21
Waning Gibbous
Feb 22
Last Quarter
Mar 1
New
Mar 8
First Quarter
Mar 16
Full

Hourly Weather History & Observations

Time (CST) Temp. Dew Point Humidity Pressure Visibility Wind Dir Wind Speed Gust Speed Precip Events Conditions
12:15 AM 66.9 °F 66.9 °F 100% 29.89 in 5.0 mi SW 19.6 mph 25.3 mph N/A Rain Heavy Rain
12:35 AM 66.2 °F 66.2 °F 100% 29.87 in 7.0 mi WSW 11.5 mph 23.0 mph N/A Rain Heavy Rain
12:55 AM 65.3 °F - N/A% 29.89 in 7.0 mi Calm Calm - N/A Rain Heavy Rain
1:15 AM 64.2 °F - N/A% 29.88 in 3.0 mi WNW 17.3 mph 21.9 mph N/A Rain Heavy Rain
1:35 AM 54.0 °F 54.0 °F 100% 29.96 in 5.0 mi NW 19.6 mph 32.2 mph N/A Rain Heavy Rain
1:55 AM 52.9 °F 52.9 °F 100% 29.97 in 10.0 mi NNW 15.0 mph 24.2 mph N/A Rain Light Rain
2:15 AM 50.5 °F 50.5 °F 100% 30.01 in 10.0 mi NW 11.5 mph 24.2 mph N/A Rain Light Rain
2:35 AM 48.7 °F 48.7 °F 100% 30.01 in 10.0 mi NW 3.5 mph 25.3 mph N/A Rain Rain
2:55 AM 46.9 °F 46.9 °F 100% 30.02 in 10.0 mi NW 13.8 mph 20.7 mph N/A Rain Light Rain
3:15 AM 46.6 °F 46.6 °F 100% 30.03 in 10.0 mi NW 8.1 mph - N/A Rain Light Rain
3:35 AM 46.8 °F 46.8 °F 100% 30.04 in 10.0 mi Calm Calm - N/A   Overcast
3:55 AM 46.8 °F 46.8 °F 100% 30.04 in 10.0 mi Calm Calm - N/A   Overcast
4:15 AM 46.6 °F 46.6 °F 100% 30.05 in 10.0 mi Calm Calm - N/A   Mostly Cloudy
4:35 AM 46.0 °F 46.0 °F 100% 30.07 in 10.0 mi Calm Calm - N/A   Scattered Clouds
4:55 AM 45.3 °F 45.3 °F 100% 30.07 in 10.0 mi Calm Calm - N/A   Clear
5:15 AM 44.6 °F 44.6 °F 100% 30.07 in 10.0 mi Calm Calm - N/A   Clear
5:35 AM 44.1 °F 44.1 °F 100% 30.08 in 10.0 mi Calm Calm - N/A   Clear
5:55 AM 43.9 °F 43.9 °F 100% 30.08 in 10.0 mi Calm Calm - N/A   Clear
6:15 AM 42.1 °F 42.1 °F 100% 30.09 in 10.0 mi Calm Calm - N/A   Clear
6:35 AM 41.4 °F - N/A% 30.10 in 10.0 mi Calm Calm - N/A   Clear
6:55 AM 40.1 °F - N/A% 30.11 in 10.0 mi Calm Calm - N/A   Clear
7:15 AM 41.7 °F - N/A% 30.12 in 10.0 mi Calm Calm - N/A   Clear
7:35 AM 43.9 °F - N/A% 30.12 in 10.0 mi Calm Calm - N/A   Clear
7:55 AM 46.2 °F 46.0 °F 99% 30.12 in 10.0 mi Calm Calm - N/A   Clear
8:15 AM 47.8 °F 41.9 °F 80% 30.12 in 10.0 mi Calm Calm - N/A   Clear
8:35 AM 49.1 °F 37.2 °F 64% 30.13 in 10.0 mi Calm Calm - N/A   Clear
8:55 AM 50.0 °F 35.4 °F 57% 30.13 in 10.0 mi Calm Calm - N/A   Clear
9:15 AM 51.1 °F 35.2 °F 55% 30.13 in 10.0 mi NNW 10.4 mph 16.1 mph N/A   Clear
9:35 AM 52.2 °F 32.9 °F 48% 30.13 in 10.0 mi NW 9.2 mph - N/A   Clear
9:55 AM 53.4 °F 31.6 °F 44% 30.13 in 10.0 mi North 6.9 mph - N/A   Clear
10:15 AM 54.7 °F 24.6 °F 31% 30.14 in 10.0 mi North 11.5 mph 17.3 mph N/A   Clear
10:35 AM 55.0 °F 24.1 °F 30% 30.14 in 10.0 mi Calm Calm - N/A   Clear
10:55 AM 55.8 °F 26.2 °F 32% 30.14 in 10.0 mi North 10.4 mph 18.4 mph N/A   Clear
11:15 AM 55.9 °F 25.5 °F 31% 30.14 in 10.0 mi WNW 6.9 mph 16.1 mph N/A   Clear
11:35 AM 56.5 °F 24.8 °F 30% 30.14 in 10.0 mi NW 5.8 mph - N/A   Clear
11:55 AM 57.7 °F 27.5 °F 31% 30.13 in 10.0 mi North 6.9 mph - N/A   Clear
12:15 PM 58.1 °F 25.5 °F 29% 30.12 in 10.0 mi North 3.5 mph - N/A   Clear
12:35 PM 58.1 °F 24.6 °F 28% 30.12 in 10.0 mi Calm Calm - N/A   Clear
12:55 PM 59.7 °F 23.7 °F 25% 30.11 in 10.0 mi Calm Calm - N/A   Clear
1:15 PM 58.5 °F 23.9 °F 26% 30.10 in 10.0 mi Calm Calm - N/A   Clear
1:35 PM 59.5 °F 23.2 °F 25% 30.09 in 10.0 mi Calm Calm - N/A   Clear
1:55 PM 60.1 °F 24.6 °F 26% 30.09 in 10.0 mi NNW 5.8 mph - N/A   Clear
2:15 PM 59.9 °F 24.1 °F 25% 30.09 in 10.0 mi Calm Calm - N/A   Clear
2:35 PM 60.1 °F 21.7 °F 23% 30.09 in 10.0 mi Calm Calm - N/A   Clear
2:55 PM 60.1 °F 23.4 °F 24% 30.10 in 10.0 mi Calm Calm - N/A   Clear
3:15 PM 60.4 °F 22.3 °F 23% 30.09 in 10.0 mi Calm Calm - N/A   Clear
3:35 PM 60.8 °F 22.8 °F 23% 30.09 in 10.0 mi Calm Calm - N/A   Clear
3:55 PM 61.5 °F 21.2 °F 21% 30.09 in 10.0 mi Calm Calm - N/A   Clear
4:15 PM 60.3 °F 22.1 °F 23% 30.09 in 10.0 mi Calm Calm - N/A   Clear
4:35 PM 60.6 °F 22.3 °F 23% 30.09 in 10.0 mi Calm Calm - N/A   Clear
4:55 PM 60.3 °F 23.0 °F 24% 30.09 in 10.0 mi Calm Calm - N/A   Clear
5:15 PM 57.2 °F 31.1 °F 37% 30.10 in 5.0 mi Calm Calm - N/A   Haze
5:35 PM 52.9 °F 38.7 °F 58% 30.09 in 10.0 mi Calm Calm - N/A   Clear
5:55 PM 49.3 °F 40.1 °F 71% 30.10 in 10.0 mi Calm Calm - N/A   Clear
6:15 PM 47.3 °F 39.2 °F 73% 30.10 in 10.0 mi Calm Calm - N/A   Clear
6:35 PM 45.5 °F 37.9 °F 75% 30.10 in 10.0 mi Calm Calm - N/A   Clear
6:55 PM 44.4 °F 38.8 °F 81% 30.10 in 10.0 mi Calm Calm - N/A   Clear
7:15 PM 43.0 °F 38.8 °F 85% 30.10 in 10.0 mi Calm Calm - N/A   Clear
7:35 PM 41.9 °F 36.9 °F 82% 30.10 in 10.0 mi Calm Calm - N/A   Clear
7:55 PM 41.9 °F 37.8 °F 85% 30.11 in 10.0 mi Calm Calm - N/A   Clear
8:15 PM 39.7 °F 39.7 °F 100% 30.11 in 10.0 mi Calm Calm - N/A   Clear
8:35 PM 40.1 °F 40.1 °F 100% 30.11 in 10.0 mi Calm Calm - N/A   Clear
8:55 PM 38.7 °F - N/A% 30.12 in 10.0 mi Calm Calm - N/A   Clear
9:15 PM 38.5 °F 38.5 °F 100% 30.12 in 10.0 mi Calm Calm - N/A   Clear
9:35 PM 37.8 °F - N/A% 30.13 in 10.0 mi Calm Calm - N/A   Clear
9:55 PM 37.6 °F - N/A% 30.12 in 10.0 mi Calm Calm - N/A   Clear
10:15 PM 37.6 °F - N/A% 30.12 in 10.0 mi Calm Calm - N/A   Clear
10:35 PM 37.4 °F - N/A% 30.13 in 10.0 mi Calm Calm - N/A   Clear
10:55 PM 38.3 °F - N/A% 30.13 in 10.0 mi Calm Calm - N/A   Clear
11:15 PM 37.6 °F 37.6 °F 100% 30.13 in 10.0 mi Calm Calm - N/A   Clear
11:35 PM 37.4 °F - N/A% 30.13 in 10.0 mi Calm Calm - N/A   Clear
11:55 PM 36.9 °F - N/A% 30.13 in 10.0 mi Calm Calm - N/A   Clear